Kodiak, AK

5:56 PM AKDT on April 21, 2018 (GMT -0800)
Kodiak

Weather History for PADQ - December, 2012

Change the Weather History Date:

Saturday, December 22, 2012

  Actual Average Record
Temperature  
Mean Temperature 20 °F 31 °F  
Max Temperature 26 °F 36 °F 56 °F (1984)
Min Temperature 13 °F 26 °F 2 °F (2001)
Degree Days  
Heating Degree Days 45 34  
Month to date heating degree days 818 743  
Since 1 July heating degree days 3743 3538  
Cooling Degree Days 0 0  
Month to date cooling degree days 0 0  
Year to date cooling degree days 0 1  
Moisture  
Dew Point 13 °F    
Average Humidity 0    
Maximum Humidity 0    
Minimum Humidity 0    
Precipitation  
Precipitation T in 0.27 in 1.83 in (1962)
Month to date precipitation 1.74 6.26  
Year to date precipitation 54.04 75.53  
Snow  
Snow T in 0.40 in 7.30 in (2006)
Month to date snowfall 6.9 10.3  
Since 1 July snowfall 14.8 17.8  
Since 1 September snowfall 17.8  
Snow Depth 3.00 in    
Sea Level Pressure  
Sea Level Pressure 29.63 in    
Wind  
Wind Speed 11 mph (WNW)    
Max Wind Speed 18 mph    
Max Gust Speed 24 mph    
Visibility 10 miles    
Events Snow    
T = Trace of Precipitation, MM = Missing Value Source: NWS Daily Summary

Daily Weather History Graph

Daily Weather History Graph

Search for Another Location

Airport or City:

Astronomy

Dec. 22, 2012 Rise Set
Actual Time 9:53 AM AKST 4:24 PM AKST
Civil Twilight 9:01 AM AKST 5:16 PM AKST
Nautical Twilight 8:09 AM AKST 6:08 PM AKST
Astronomical Twilight 7:21 AM AKST 6:56 PM AKST
Moon 1:25 PM AKST 4:06 AM AKST
Length of Visible Light 8h 14m
Length of Day
6h 31m
Waxing Gibbous, 75% of the Moon is Illuminated
Dec 22
Waxing Gibbous
Dec 28
Full
Jan 4
Last Quarter
Jan 11
New
Jan 18
First Quarter

Hourly Weather History & Observations

Time (AKST) Temp. Windchill Dew Point Humidity Pressure Visibility Wind Dir Wind Speed Gust Speed Precip Events Conditions
12:53 AM 21.0 °F 8.6 °F 9.0 °F 60% 29.85 in 10.0 mi WNW 12.7 mph - N/A   Clear
1:53 AM 23.0 °F 10.1 °F 10.0 °F 58% 29.84 in 10.0 mi WNW 15.0 mph - N/A   Clear
3:53 AM 21.0 °F 10.6 °F 10.0 °F 63% 29.81 in 10.0 mi NW 9.2 mph - N/A   Clear
4:53 AM 21.9 °F 9.8 °F 10.9 °F 63% 29.78 in 10.0 mi NW 12.7 mph 21.9 mph N/A   Clear
5:53 AM 23.0 °F 11.7 °F 9.0 °F 55% 29.76 in 10.0 mi WNW 11.5 mph - N/A   Partly Cloudy
6:53 AM 21.0 °F 9.3 °F 10.0 °F 63% 29.74 in 10.0 mi NW 11.5 mph - N/A   Partly Cloudy
7:53 AM 21.9 °F 11.0 °F 10.9 °F 63% 29.72 in 10.0 mi NW 10.4 mph - N/A   Clear
8:53 AM 21.9 °F 10.4 °F 12.0 °F 66% 29.70 in 10.0 mi NW 11.5 mph 20.7 mph N/A   Partly Cloudy
9:53 AM 21.9 °F 10.4 °F 12.0 °F 66% 29.69 in 10.0 mi NW 11.5 mph - N/A   Scattered Clouds
10:53 AM 24.1 °F 12.5 °F 14.0 °F 65% 29.67 in 10.0 mi WNW 12.7 mph - N/A   Mostly Cloudy
11:53 AM 25.0 °F 13.1 °F 14.0 °F 63% 29.64 in 10.0 mi WNW 13.8 mph - N/A   Overcast
12:53 PM 24.1 °F 12.5 °F 15.1 °F 69% 29.62 in 9.0 mi WNW 12.7 mph - 0.00 in Snow Light Snow
1:53 PM 25.0 °F 12.6 °F 15.1 °F 66% 29.59 in 10.0 mi WNW 15.0 mph - 0.00 in   Overcast
2:53 PM 26.1 °F 14.5 °F 16.0 °F 66% 29.57 in 10.0 mi NW 13.8 mph 20.7 mph N/A   Overcast
3:53 PM 25.0 °F 12.6 °F 16.0 °F 69% 29.55 in 10.0 mi WNW 15.0 mph 21.9 mph N/A   Mostly Cloudy
4:53 PM 25.0 °F 11.3 °F 15.1 °F 66% 29.53 in 10.0 mi WNW 18.4 mph 24.2 mph N/A   Mostly Cloudy
5:53 PM 25.0 °F 15.5 °F 14.0 °F 63% 29.52 in 10.0 mi WNW 9.2 mph - N/A   Mostly Cloudy
6:53 PM 23.0 °F - 14.0 °F 68% 29.52 in 10.0 mi Calm Calm - N/A   Scattered Clouds
7:53 PM 23.0 °F 13.9 °F 15.1 °F 72% 29.49 in 10.0 mi WNW 8.1 mph - N/A   Clear
8:53 PM 19.9 °F 12.1 °F 12.9 °F 74% 29.49 in 10.0 mi West 5.8 mph - N/A   Clear
9:53 PM 17.1 °F 8.7 °F 12.0 °F 81% 29.49 in 10.0 mi West 5.8 mph - N/A   Clear
10:53 PM 19.0 °F 12.3 °F 14.0 °F 81% 29.49 in 10.0 mi West 4.6 mph - N/A   Scattered Clouds
11:53 PM 17.1 °F 10.0 °F 10.9 °F 77% 29.49 in 10.0 mi West 4.6 mph - N/A   Scattered Clouds